• In France
  • List of Countries
  • For 7 days
  • Water Temperature
  • Satellite Maps
  • Weather Map
  • Weather Widgets
  • user-avatar
    Login

    Hourly Weather Krasnaya Yablonka

    Today, 22 September, Saturday

    Time Temperature Precipitation Wind Pressure Humidity
    00:00 +17°C° 0 mm 2 mps 755 mmHg 80%
    01:00 +17°C° 0 mm 2 mps 755 mmHg 81%
    02:00 +16°C° 0 mm 2 mps 755 mmHg 83%
    03:00 +15°C° 0 mm 2 mps 755 mmHg 86%
    04:00 +15°C° 0 mm 2 mps 755 mmHg 87%
    05:00 +15°C° 0 mm 2 mps 755 mmHg 88%
    06:00 +15°C° 0 mm 2 mps 755 mmHg 89%
    07:00 +17°C° 0 mm 3 mps 754 mmHg 82%
    08:00 +18°C° 0 mm 3 mps 754 mmHg 76%
    09:00 +20°C° 0 mm 3 mps 754 mmHg 69%
    10:00 +21°C° 0 mm 4 mps 754 mmHg 63%
    11:00 +23°C° 0 mm 4 mps 754 mmHg 58%
    12:00 +25°C° 0 mm 5 mps 754 mmHg 52%
    13:00 +26°C° 0 mm 5 mps 754 mmHg 51%
    14:00 +26°C° 0 mm 5 mps 753 mmHg 49%
    15:00 +27°C° 0 mm 4 mps 753 mmHg 47%
    16:00 +26°C° 0 mm 4 mps 752 mmHg 52%
    17:00 +23°C° 0 mm 4 mps 752 mmHg 58%
    18:00 +22°C° 0 mm 4 mps 752 mmHg 63%
    19:00 +21°C° 0 mm 4 mps 752 mmHg 64%
    20:00 +20°C° 0 mm 4 mps 751 mmHg 65%
    21:00 +19°C° 0 mm 4 mps 751 mmHg 66%
    22:00 +19°C° 0 mm 4 mps 751 mmHg 66%
    23:00 +17°C° 0 mm 5 mps 751 mmHg 65%

    Tomorrow, 23 September, Sunday

    Time Temperature Precipitation Wind Pressure Humidity
    00:00 +17°C° 0 mm 5 mps 750 mmHg 65%
    01:00 +17°C° 0 mm 5 mps 750 mmHg 67%
    02:00 +16°C° 0 mm 5 mps 750 mmHg 68%
    03:00 +16°C° 0 mm 5 mps 749 mmHg 69%
    04:00 +16°C° 0 mm 5 mps 749 mmHg 70%
    05:00 +15°C° 0 mm 5 mps 748 mmHg 70%
    06:00 +15°C° 0 mm 6 mps 747 mmHg 71%
    07:00 +16°C° 0 mm 6 mps 747 mmHg 68%
    08:00 +17°C° 0 mm 7 mps 746 mmHg 64%
    09:00 +18°C° 0 mm 8 mps 746 mmHg 61%
    10:00 +20°C° 0 mm 8 mps 746 mmHg 58%
    11:00 +21°C° 0 mm 8 mps 746 mmHg 56%
    12:00 +22°C° 0 mm 8 mps 746 mmHg 53%
    13:00 +18°C° 0.6 mm 8 mps 746 mmHg 63%
    14:00 +15°C° 0.6 mm 7 mps 746 mmHg 72%
    15:00 +11°C° 0.6 mm 6 mps 747 mmHg 82%
    16:00 +12°C° 0.6 mm 5 mps 747 mmHg 83%
    17:00 +11°C° 0.6 mm 4 mps 747 mmHg 84%
    18:00 +10°C° 0.6 mm 3 mps 748 mmHg 86%
    19:00 +10°C° 0.1 mm 3 mps 748 mmHg 86%
    20:00 +10°C° 0.1 mm 2 mps 748 mmHg 86%
    21:00 +10°C° 0.1 mm 2 mps 748 mmHg 87%
    22:00 +10°C° 0 mm 2 mps 748 mmHg 88%
    23:00 +10°C° 0 mm 2 mps 748 mmHg 90%

    Day after tomorrow, 24 September, Monday

    Time Temperature Precipitation Wind Pressure Humidity
    00:00 +9°C° 0 mm 2 mps 748 mmHg 91%
    01:00 +9°C° 0 mm 2 mps 749 mmHg 92%
    02:00 +9°C° 0 mm 3 mps 749 mmHg 92%
    03:00 +8°C° 0 mm 3 mps 749 mmHg 92%
    04:00 +8°C° 0 mm 3 mps 749 mmHg 93%
    05:00 +8°C° 0 mm 2 mps 749 mmHg 93%
    06:00 +7°C° 0 mm 2 mps 749 mmHg 93%
    07:00 +9°C° 0 mm 3 mps 749 mmHg 87%
    08:00 +10°C° 0 mm 3 mps 749 mmHg 82%
    09:00 +12°C° 0 mm 3 mps 749 mmHg 76%
    10:00 +13°C° 0 mm 4 mps 749 mmHg 69%
    11:00 +14°C° 0 mm 4 mps 749 mmHg 62%
    12:00 +17°C° 0 mm 4 mps 749 mmHg 55%
    13:00 +15°C° 0 mm 5 mps 748 mmHg 55%
    14:00 +15°C° 0 mm 5 mps 748 mmHg 55%
    15:00 +15°C° 0 mm 5 mps 747 mmHg 55%
    16:00 +14°C° 0.4 mm 5 mps 746 mmHg 62%
    17:00 +13°C° 0.4 mm 6 mps 746 mmHg 68%
    18:00 +11°C° 0.4 mm 6 mps 745 mmHg 75%
    19:00 +11°C° 1.4 mm 7 mps 744 mmHg 77%
    20:00 +11°C° 1.4 mm 8 mps 743 mmHg 79%
    21:00 +11°C° 1.4 mm 9 mps 742 mmHg 82%
    22:00 +11°C° 1.1 mm 9 mps 741 mmHg 81%
    23:00 +11°C° 1.1 mm 10 mps 740 mmHg 81%

    25 September, Tuesday

    Time Temperature Precipitation Wind Pressure Humidity
    00:00 +11°C° 1.1 mm 10 mps 739 mmHg 80%
    01:00 +11°C° 0.2 mm 10 mps 738 mmHg 81%
    02:00 +11°C° 0.2 mm 9 mps 738 mmHg 81%
    03:00 +11°C° 0.2 mm 9 mps 738 mmHg 81%
    04:00 +10°C° 0.1 mm 8 mps 738 mmHg 81%
    05:00 +9°C° 0.1 mm 7 mps 738 mmHg 80%
    06:00 +9°C° 0.1 mm 7 mps 738 mmHg 79%
    07:00 +9°C° 0 mm 7 mps 738 mmHg 78%
    08:00 +9°C° 0 mm 7 mps 738 mmHg 77%
    09:00 +9°C° 0 mm 7 mps 739 mmHg 76%
    10:00 +9°C° 0 mm 8 mps 739 mmHg 75%
    11:00 +9°C° 0 mm 8 mps 740 mmHg 73%
    12:00 +10°C° 0 mm 8 mps 740 mmHg 72%
    13:00 +9°C° 0 mm 8 mps 741 mmHg 71%
    14:00 +9°C° 0 mm 8 mps 741 mmHg 71%
    15:00 +9°C° 0 mm 8 mps 742 mmHg 70%
    16:00 +9°C° 0 mm 8 mps 742 mmHg 70%
    17:00 +7°C° 0 mm 8 mps 743 mmHg 71%
    18:00 +8°C° 0 mm 7 mps 743 mmHg 71%
    19:00 +8°C° 0 mm 7 mps 744 mmHg 72%
    20:00 +6°C° 0 mm 7 mps 744 mmHg 72%
    21:00 +6°C° 0 mm 7 mps 745 mmHg 73%
    22:00 +6°C° 0.1 mm 7 mps 745 mmHg 74%
    23:00 +6°C° 0.1 mm 7 mps 746 mmHg 76%

    26 September, Wednesday

    Time Temperature Precipitation Wind Pressure Humidity
    00:00 +5°C° 0.1 mm 7 mps 747 mmHg 77%
    01:00 +5°C° 0.2 mm 7 mps 747 mmHg 78%
    02:00 +5°C° 0.2 mm 6 mps 748 mmHg 79%
    03:00 +5°C° 0.2 mm 6 mps 748 mmHg 79%
    04:00 +4°C° 0.1 mm 6 mps 749 mmHg 79%
    05:00 +4°C° 0.1 mm 6 mps 750 mmHg 78%
    06:00 +4°C° 0.1 mm 6 mps 750 mmHg 78%
    07:00 +3°C° 0 mm 6 mps 751 mmHg 74%
    08:00 +3°C° 0 mm 6 mps 752 mmHg 70%
    09:00 +3°C° 0 mm 6 mps 752 mmHg 67%
    10:00 +4°C° 0 mm 6 mps 753 mmHg 61%
    11:00 +5°C° 0 mm 6 mps 753 mmHg 56%
    12:00 +7°C° 0 mm 6 mps 754 mmHg 50%
    13:00 +8°C° 0 mm 6 mps 754 mmHg 50%
    14:00 +9°C° 0 mm 6 mps 754 mmHg 50%
    15:00 +9°C° 0 mm 6 mps 754 mmHg 50%
    16:00 +8°C° 0.2 mm 5 mps 754 mmHg 57%
    17:00 +7°C° 0.2 mm 4 mps 754 mmHg 64%
    18:00 +8°C° 0.2 mm 3 mps 754 mmHg 71%
    19:00 +7°C° 0 mm 3 mps 754 mmHg 73%
    20:00 +5°C° 0 mm 3 mps 754 mmHg 75%
    21:00 +5°C° 0 mm 4 mps 754 mmHg 76%
    22:00 +5°C° 0 mm 4 mps 753 mmHg 75%
    23:00 +6°C° 0 mm 5 mps 753 mmHg 74%

    27 September, Thursday

    Time Temperature Precipitation Wind Pressure Humidity
    00:00 +6°C° 0 mm 5 mps 752 mmHg 73%
    01:00 +5°C° 0.2 mm 6 mps 752 mmHg 76%
    02:00 +5°C° 0.2 mm 6 mps 751 mmHg 78%
    03:00 +5°C° 0.2 mm 7 mps 750 mmHg 81%
    04:00 +5°C° 0.5 mm 8 mps 749 mmHg 81%
    05:00 +5°C° 0.5 mm 8 mps 749 mmHg 82%
    06:00 +5°C° 0.5 mm 9 mps 748 mmHg 83%
    07:00 +5°C° 0.8 mm 9 mps 747 mmHg 82%
    08:00 +5°C° 0.8 mm 9 mps 747 mmHg 82%
    09:00 +5°C° 0.8 mm 9 mps 746 mmHg 81%
    10:00 +6°C° 0.7 mm 9 mps 746 mmHg 82%
    11:00 +6°C° 0.7 mm 9 mps 746 mmHg 82%
    12:00 +6°C° 0.7 mm 9 mps 746 mmHg 83%
    13:00 +7°C° 0.3 mm 8 mps 745 mmHg 82%
    14:00 +7°C° 0.3 mm 8 mps 745 mmHg 82%
    15:00 +9°C° 0.3 mm 8 mps 745 mmHg 82%
    16:00 +7°C° 0.5 mm 8 mps 745 mmHg 83%
    17:00 +7°C° 0.5 mm 8 mps 744 mmHg 84%
    18:00 +7°C° 0.5 mm 8 mps 744 mmHg 86%
    19:00 +7°C° 0.4 mm 8 mps 743 mmHg 86%
    20:00 +7°C° 0.4 mm 8 mps 743 mmHg 86%
    21:00 +7°C° 0.4 mm 8 mps 743 mmHg 87%
    22:00 +8°C° 0.4 mm 7 mps 742 mmHg 87%
    23:00 +9°C° 0.4 mm 7 mps 742 mmHg 88%
    Show more